Location: Castelbiague
(43.0361°N, 0.9246°E)
Time: 02:30:48
(UTC+00:00)

Cosmos 2219 Rocket - Visible Passes

Search period start: 23 October 2021 00:00
Search period end: 02 November 2021 00:00
Orbit: 828 x 846 km, 71.0° (Epoch: 22 October)

Date Brightness Start Highest point End Pass type
(mag) Time Alt. Az. Time Alt. Az. Time Alt. Az.
23 Oct 4.8 03:37:32 10° N 03:40:49 15° NE 03:44:05 10° E visible
23 Oct 2.3 05:19:58 10° NNW 05:25:41 82° ENE 05:31:21 10° SSE visible
23 Oct 4.1 18:29:24 10° SE 18:30:02 12° SE 18:30:02 12° SE visible
23 Oct 4.5 20:11:14 10° SW 20:11:53 13° SW 20:11:53 13° SW visible
24 Oct 4.9 03:21:16 10° N 03:24:19 14° NE 03:27:21 10° ENE visible
24 Oct 2.4 05:03:34 10° NNW 05:09:15 77° ENE 05:14:55 10° SSE visible
24 Oct 3.6 18:13:15 10° SE 18:15:44 17° ESE 18:15:44 17° ESE visible
24 Oct 3.6 19:54:47 10° SW 19:57:34 30° SW 19:57:34 30° SW visible
25 Oct 4.9 03:05:03 10° NNE 03:07:49 14° NE 03:10:36 10° ENE visible
25 Oct 2.4 04:47:10 10° NNW 04:52:50 71° ENE 04:58:29 10° SSE visible
25 Oct 3.5 17:57:09 10° SE 18:00:36 17° E 18:01:22 16° E visible
25 Oct 2.5 19:38:20 10° SSW 19:43:11 62° WSW 19:43:11 62° WSW visible
26 Oct 5.0 02:48:51 10° NNE 02:51:20 13° NE 02:53:48 10° ENE visible
26 Oct 2.5 04:30:46 10° NNW 04:36:25 66° ENE 04:42:03 10° SE visible
26 Oct 3.6 17:41:05 10° SE 17:44:15 16° E 17:46:51 12° ENE visible
26 Oct 2.2 19:21:54 10° SSW 19:27:28 75° WNW 19:28:40 55° N visible
26 Oct 5.0 21:09:35 10° WNW 21:10:29 12° WNW 21:10:29 12° WNW visible
27 Oct 5.0 02:32:41 10° NNE 02:34:49 12° NE 02:36:57 10° ENE visible
27 Oct 2.6 04:14:22 10° NNW 04:20:00 61° ENE 04:25:36 10° SE visible
27 Oct 3.7 17:25:04 10° SE 17:27:54 14° E 17:30:44 10° ENE visible
27 Oct 2.2 19:05:28 10° SSW 19:11:03 80° WNW 19:13:56 30° NNE visible
27 Oct 4.8 20:52:50 10° WNW 20:55:44 15° NW 20:55:44 15° NW visible
28 Oct 5.0 02:17:27 11° NNE 02:18:19 11° NE 02:20:02 10° ENE visible
28 Oct 2.7 03:59:15 17° NNW 04:03:34 57° ENE 04:09:08 10° SE visible
28 Oct 3.4 05:42:53 10° NW 05:47:03 21° W 05:51:12 10° SSW visible
28 Oct 2.1 18:49:03 10° SSW 18:54:38 86° WNW 18:58:59 18° NNE visible
28 Oct 4.7 20:36:08 10° W 20:39:28 16° NW 20:40:46 15° NNW visible
29 Oct 5.1 02:02:56 10° NE 02:02:56 10° NE 02:02:57 10° NE visible
29 Oct 2.8 03:44:45 32° N 03:47:08 53° ENE 03:52:40 10° SE visible
29 Oct 3.3 05:26:35 11° NW 05:30:41 23° W 05:35:01 10° SSW visible
29 Oct 2.1 18:32:38 10° SSW 18:38:14 88° ESE 18:43:48 10° NNE visible
29 Oct 4.6 20:19:25 10° W 20:22:59 17° NW 20:25:33 13° NNW visible
30 Oct 2.9 03:30:23 49° NE 03:30:42 49° ENE 03:36:12 10° SE visible
30 Oct 3.2 05:12:13 20° WNW 05:14:19 25° WSW 05:18:50 10° SSW visible
30 Oct 2.1 18:16:14 10° SSW 18:21:49 82° ESE 18:27:28 10° NNE visible
30 Oct 4.6 20:02:45 10° W 20:06:30 18° NW 20:10:09 10° N visible
31 Oct 3.5 03:16:05 35° ESE 03:16:05 35° ESE 03:19:42 10° SE visible
31 Oct 3.0 04:57:55 27° WSW 04:57:56 27° WSW 05:02:37 10° SSW visible
31 Oct 2.1 17:59:51 10° SSW 18:05:25 76° ESE 18:11:03 10° NNE visible
31 Oct 4.5 19:46:06 10° W 19:50:01 19° NW 19:53:58 10° N visible
01 Nov 4.4 03:01:47 18° ESE 03:01:47 18° ESE 03:03:12 10° SE visible
01 Nov 3.4 04:43:37 23° SW 04:43:37 23° SW 04:46:23 10° SSW visible
01 Nov 2.1 17:43:28 10° SSW 17:49:01 71° ESE 17:54:38 10° NNE visible
01 Nov 4.5 19:29:27 10° W 19:33:33 20° NW 19:37:40 10° N visible
